Location: Angwan Shehu
(11.2514°N, 7.4613°E)
Time: 04:23:01
(UTC+00:00)

Cosmos 2034 Rocket - Visible Passes

Search period start: 28 February 2020 00:00
Search period end: 09 March 2020 00:00
Orbit: 957 x 1001 km, 82.9° (Epoch: 27 February)

Date Brightness Start Highest point End Pass type
(mag) Time Alt. Az. Time Alt. Az. Time Alt. Az.
28 Feb 4.6 18:44:36 10° SSW 18:50:39 59° W 18:56:42 10° N visible
29 Feb 6.1 19:12:10 10° SW 19:17:10 26° W 19:22:11 10° NNW visible
01 Mar 7.3 04:43:53 10° ENE 04:45:38 11° E 04:47:22 10° E visible
01 Mar 4.1 17:52:23 10° S 17:58:24 56° E 18:04:23 10° NNE visible
01 Mar 7.1 19:42:31 10° W 19:43:46 11° W 19:45:02 10° WNW visible
02 Mar 6.4 05:07:03 10° NNE 05:12:13 27° E 05:17:26 10° SE visible
02 Mar 4.4 18:18:44 10° SSW 18:24:51 67° W 18:30:56 10° N visible
03 Mar 6.0 18:46:06 10° SW 18:51:21 29° W 18:56:36 10° NNW visible
04 Mar 7.0 19:15:30 10° WSW 19:17:57 12° W 19:20:24 10° WNW visible
05 Mar 6.5 04:41:30 10° NNE 04:46:25 24° E 04:51:21 10° SE visible
05 Mar 4.3 17:52:53 10° S 17:59:03 75° W 18:05:10 10° N visible
06 Mar 5.0 05:06:51 10° N 05:12:58 52° E 05:19:07 10° SSE visible
06 Mar 5.9 18:20:05 10° SSW 18:25:32 33° W 18:30:59 10° NNW visible
07 Mar 7.0 18:48:56 10° WSW 18:52:07 14° W 18:55:18 10° NW visible
08 Mar 6.6 04:16:01 10° NE 04:20:37 21° E 04:25:14 10° SE visible
